Flag for Guatemala Weather past 2 weeks in Guatemala, Guatemala

Now
70 °F

Partly sunny.


Feels Like: 70 °F
Forecast: 63 / 69 °F
Wind: 9 mph from South

Location: Guatemala Aeropuertola Aurora

Current Time: Sep 16, 2014 at 11:48:40 AM

Latest Report: Sep 16, 2014 at 11:00 AM


Visibility: N/A

Pressure: 30.36 "Hg

Humidity: 78%

Dew point: 63 °F

Location of GuatemalaLocation

Historic Weather in Guatemala — Graph

°F

Guatemala temperature yesterday

Maximum temperature yesterday: 70 °F (at 10:00 AM)
Minimum temperature yesterday: 61 °F (at 4:00 AM)
Average temperature yesterday: 64 °F

Past Weeks' High & Low Weather Summary

 TemperatureHumidityPressure
High81 °F (Sep 2, 1:00 PM)100% (Sep 2, 10:00 PM)30.36 "Hg (Sep 2, 10:00 PM)
Low61 °F (Sep 4, 4:00 AM)48% (Sep 4, 4:00 PM)30.12 "Hg (Sep 11, 4:00 PM)
Average67 °F86%30.24 "Hg
* Reported Sep 1 10:00 AM — Sep 16 10:06 AM, Guatemala, Weather by CustomWeather, © 2014

Note: Actual official high and low records may vary slightly from our data, if they occured in-between our weather recording intervals... More about our weather records

Advertising

Guatemala weather history for previous 24 hours

 ConditionsComfort  
Time TempWeatherWind HumidityBarometerVisibility
10:06 AM
Sep 16
N/ADrizzle.7 mphN/AN/AN/A
10:00 AM66 °FPartly sunny.7 mph88%30.36 "HgN/A
9:00 AM64 °FPartly sunny.5 mph94%30.36 "Hg4 mi
8:00 AM64 °FPartly sunny.No wind88%30.36 "HgN/A
7:00 AM63 °FPartly sunny.No wind94%30.33 "HgN/A
6:00 AM63 °FBroken clouds.No wind94%30.33 "Hg4 mi
5:10 AMN/APassing clouds.No windN/AN/A4 mi
4:00 AM63 °FFog.No wind94%30.30 "Hg2 mi
3:00 AM63 °FDrizzle. Fog.No wind94%30.30 "Hg3 mi
2:00 AM63 °FPartly cloudy.No wind100%30.30 "Hg4 mi
1:00 AM63 °FPartly cloudy.No wind100%30.33 "Hg5 mi
12:00 AM63 °FPartly cloudy.No wind100%30.33 "HgN/A
10:10 PM
Sep 15
N/ADrizzle.No windN/AN/AN/A
10:00 PM63 °FPartly cloudy.No wind100%30.36 "HgN/A
9:00 PM63 °FPassing clouds.No wind100%30.33 "HgN/A
8:00 PM64 °FPassing clouds.No wind94%30.30 "HgN/A
7:00 PM64 °FPassing clouds.No wind88%30.27 "HgN/A
6:00 PM64 °FMore clouds than sun.No wind88%30.27 "HgN/A
5:00 PM64 °FPartly sunny.7 mph94%30.24 "HgN/A
4:00 PM64 °FBroken clouds.5 mph100%30.24 "HgN/A
3:00 PM64 °FDrizzle. Fog.7 mph94%30.24 "Hg2 mi
2:00 PM64 °FScattered showers. Partly sunny.5 mph94%30.24 "Hg4 mi
1:00 PM66 °FDrizzle. Fog.7 mph88%30.27 "Hg2 mi
12:05 PMN/ARain.5 mphN/AN/A1 mi
12:00 PM66 °FRain. Partly sunny.5 mph88%30.30 "Hg4 mi
11:00 AM70 °FDrizzle. Broken clouds.7 mph78%30.33 "HgN/A
Weather by CustomWeather, © 2014

See weather overviewHow to use our weather pages